Skip Page Navigation
NASA JPL Caltech
NASA Logo - Jet Propulsion Laboratory + View the NASA Portal
+ Center for Near-Earth Object Studies
JPL Home Earth Solar System Stars & Galaxies Technology
JPL Solar System Dynamics
BODIES ORBITS EPHEMERIDES TOOLS PHYSICAL DATA DISCOVERY FAQ SITE MAP
JPL Small-Body Database Browser
Search: [ help ]  
85635 (1998 MV1)
Classification: Main-belt Asteroid          SPK-ID: 2085635
Ephemeris | Orbit Diagram | Orbital Elements | Mission Design | Physical Parameters | Discovery Circumstances | Close-Approach Data ]

[ show orbit diagram ]
Orbital Elements at Epoch 2459000.5 (2020-May-31.0) TDB
Reference: JPL 17 (heliocentric ecliptic J2000)
 Element Value Uncertainty (1-sigma)   Units 
e .1208158063893016 4.5967e-08  
a 3.030340881462833 2.0321e-08 au
q 2.664227804234434 1.4478e-07 au
i 4.832842846910874 4.4055e-06 deg
node 232.7992987919241 6.1414e-05 deg
peri 83.52807758634781 6.7608e-05 deg
M 359.6055181451707 2.4456e-05 deg
tp 2459002.611349768047
(2020-Jun-02.11134977)
0.00013089 TDB
period 1926.795636331009
5.28
1.9381e-05
5.306e-08
d
yr
n .186838704225794 1.8793e-09 deg/d
Q 3.396453958691233 2.2776e-08 au
  Orbit Determination Parameters
   # obs. used (total)      517  
   data-arc span      8179 days (22.39 yr)  
   first obs. used      1998-06-20  
   last obs. used      2020-11-10  
   planetary ephem.      DE431  
   SB-pert. ephem.      SB431-N16  
   condition code      0  
   norm. resid. RMS      .52751  
   source      ORB  
   producer      Otto Matic  
   solution date      2020-Dec-18 04:17:30  

Additional Information
 Earth MOID = 1.65633 au 
 Jupiter MOID = 1.88741 au 
 T_jup = 3.227 
[ show covariance matrix ]

Ephemeris | Orbit Diagram | Orbital Elements | Mission Design | Physical Parameters | Discovery Circumstances | Close-Approach Data ]

Physical Parameter Table
Parameter Symbol Value Units Sigma Reference Notes
absolute magnitude H 15.4   n/a MPO436374  
diameter diameter 3.995 km 0.380 urn:nasa:pds:neowise_diameters_albedos::2.0[mainbelt] (http://adsabs.harvard.edu/abs/2011ApJ...741...68M)  
geometric albedo albedo 0.070   0.023 urn:nasa:pds:neowise_diameters_albedos::2.0[mainbelt] (http://adsabs.harvard.edu/abs/2011ApJ...741...68M)  

85635 (1998 MV1)          Discovered 1998-Jun-20 by Spacewatch at Kitt Peak
Reference: 20040830/Numbers.arcLast Updated: 2004-09-06

[ hide close-approach data ]
Close-Approach Data   ...sorted by Date/Time (TDB)
Date/Time (TDB) Time Uncertainty
(days_HH:MM)
Body Nominal Distance (au) Minimum Distance (au) Maximum Distance (au) V-relative (km/s) V-infinity (km/s) JD (TDB) Time Uncertainty (minutes) Semi-major axis (km) Semi-minor axis (km) range-LOV angle (deg) N-sigma BP Orbit Ref. Reference Modified
1905-Jul-16 01:26 00:03 Jupiter 1.98306095583962 1.98306020388662 1.98306170779554 3.80759851850992 3.69371747811761 2417042.559959513 3.31895218035804 175.007909462673 21.4154506811096 -82.7626612992899 2710069.66947014 T 17 CATAB v2.0f-lin.ifort 2020-Dec-18 04:17:32 2020-Dec-18 04:17
1943-Oct-13 01:41 00:02 Jupiter 1.98139374419709 1.98139306658669 1.98139442180783 2.56334513959668 2.39076595120054 2431010.570146480 2.22606745171715 94.6796927112508 22.5561485083573 -78.2205686639337 2913054.6604833 T 17 CATAB v2.0f-lin.ifort 2020-Dec-18 04:17:32 2020-Dec-18 04:17
1953-Feb-12 02:20 00:02 Jupiter 1.968254298923 1.96825375292421 1.9682548449219 3.7348261338135 3.617767574779 2434420.597256909 1.87065321536989 104.072772739591 21.4595298702786 -86.350102625636 2786346.30992702 T 17 CATAB v2.0f-lin.ifort 2020-Dec-18 04:17:32 2020-Dec-18 04:17
1991-May-13 18:49 < 00:01 Jupiter 1.99207105682471 1.9920705558105 1.99207155783882 2.55128622080559 2.37879538890906 2448390.284249064 0.741753741264178 51.8337267396172 17.2072822946068 88.5396845170773 2844026.94167257 T 17 CATAB v2.0f-lin.ifort 2020-Dec-18 04:17:32 2020-Dec-18 04:17
2000-Sep-10 01:46 < 00:01 Jupiter 1.95766684488551 1.95766626712912 1.95766742264178 3.66777496397587 3.54784926543404 2451797.573871972 0.453683746020017 52.5319527129722 23.6774959425677 -86.6349117426205 2724349.56300393 T 17 CATAB v2.0f-lin.ifort 2020-Dec-18 04:17:32 2020-Dec-18 04:17
2048-Apr-08 11:48 00:01 Jupiter 1.95085218134535 1.95085143150906 1.95085293118187 3.60572899163477 3.4832341304049 2469174.991805723 1.10233075872223 75.5871423434002 21.8319799015226 -73.8648338361326 2278634.36129757 T 17 CATAB v2.0f-lin.ifort 2020-Dec-18 04:17:32 2020-Dec-18 04:17
2095-Nov-06 18:18 00:03 Jupiter 1.94625264671987 1.94625172699993 1.94625356644181 3.539530982133 3.41436170322745 2486553.262174330 2.55548760965599 131.697853754566 20.1194456388769 -77.7812942025693 2317295.44305163 T 17 CATAB v2.0f-lin.ifort 2020-Dec-18 04:17:32 2020-Dec-18 04:17
2143-Jun-06 02:18 00:04 Jupiter 1.94012148654119 1.94012044009962 1.94012253298739 3.46695918302398 3.33865864794987 2503930.595912582 4.0196020171739 186.155514883849 19.1896810423478 -80.7119521269845 2336402.37094552 T 17 CATAB v2.0f-lin.ifort 2020-Dec-18 04:17:32 2020-Dec-18 04:17
2191-Jan-02 04:36 00:05 Jupiter 1.93276667322608 1.93276554804295 1.93276779841722 3.38616849074022 3.25417423634629 2521307.691668733 5.49100113157433 232.941767983874 18.386403571767 -83.0264233529793 2322088.26650598 T 17 CATAB v2.0f-lin.ifort 2020-Dec-18 04:17:32 2020-Dec-18 04:17

Alternate Designations
 1998 MV1 = 1999 RQ70 
Ephemeris | Orbit Diagram | Orbital Elements | Mission Design | Physical Parameters | Discovery Circumstances | Close-Approach Data ]
ABOUT SSD CREDITS/AWARDS PRIVACY/COPYRIGHT GLOSSARY LINKS
FirstGov 2021-Jan-25 15:25 UT
(server date/time)  
NASA Home Page
Site Manager:   Ryan S. Park
Webmaster  Alan B. Chamberlin